Terminal Aerodrome Forecast
Issued by NWS Tulsa, OK

Home | Current Version | Previous Version | Text Only | Print | Product List | Glossary On
Versions: 1 2 3 4 5 6 7 8 9 10 11 12 13 14 15
000
FTUS44 KTSA 030520
TAFFSM
TAF
KFSM 030520Z 0306/0406 VRB04KT P6SM VCSH BKN050
     FM030800 VRB04KT P6SM BKN050 BKN100 WS020/26030KT
     FM031400 VRB04KT 5SM -TSRA BR SCT015 BKN025CB
     FM031900 26007KT P6SM VCTS SCT025 BKN040CB PROB30 0320/0402 5SM
      -TSRA BKN025CB
     FM040200 VRB05KT P6SM BKN040 PROB30 0402/0406 -TSRA BKN050CB=

USA.gov is the U.S. government's official web portal to all federal, state and local government web resources and services.